Location: Breux
(46.3269°N, 3.2993°E)
Time: 00:26:45
(UTC+00:00)

Cosmos 1328 - Pass Details

Date: 09 April 2020
Orbit: 539 x 544 km, 82.5° (Epoch: 02 June)

Event Time Altitude Azimuth Distance (km) Brightness Sun altitude
Rises 19:04:52 0° 353° (N) 2,722 7.7 -7.1°
Reaches altitude 10° 19:07:03 10° 356° (N) 1,824 6.8 -7.5°
Maximum altitude 19:11:03 67° 80° (E) 596 3.8 -8.1°
Drops below altitude 10° 19:15:01 10° 163° (SSE) 1,809 6.1 -8.8°
Sets 19:17:10 0° 166° (SSE) 2,697 7.0 -9.1°
